Location: *
(46.1006°N, 1.8394°E)
Time: 06:55:19
(UTC+00:00)

Meteor 1-4 Rocket - Pass Details

Date: 20 September 2019
Orbit: 449 x 504 km, 81.2° (Epoch: 18 October)

Event Time Altitude Azimuth Distance (km) Brightness Sun altitude
Rises 18:55:24 0° 357° (N) 2,519 6.4 -11.2°
Reaches altitude 10° 18:57:40 10° 8° (N) 1,627 5.3 -11.6°
Maximum altitude 19:00:53 32° 73° (ENE) 814 3.2 -12.1°
Enters shadow 19:02:45 19° 124° (SE) 1,141 3.9 -12.4°
